World > North America > United States > Alabama

Hourly Roebuck Plaza, AL Regional Weather

Feedback E-mail the Weather

Quick WX

Roebuck Plaza, AL Weather Maps

°F °C°F °C
Roebuck Plaza Weather Map
UTC Time: 7/3/2022, 23:05
Your Time:

Roebuck Plaza, AL Regional Weather

Expires:202207032300;;631660
ASUS44 KBMX 032210
RWRAL 
             
ALABAMA REGIONAL WEATHER ROUNDUP
NATIONAL WEATHER SERVICE BIRMINGHAM AL
500 PM CDT SUN JUL 03 2022

NOTE: "FAIR" INDICATES FEW OR NO CLOUDS BELOW 12,000 FEET
WITH NO SIGNIFICANT WEATHER AND/OR OBSTRUCTIONS TO VISIBILITY.

THE REMARK "TC" DENOTES TEMPERATURE IN DEGREES CELSIUS.


ALZ015-024>026-033>036-041>044-032300-
CENTRAL ALABAMA
  
CITY           SKY/WX    TMP DP  RH WIND       PRES   REMARKS
BIRMINGHAM     PTSUNNY   92  69  47 SW7       30.06S HX  97           
MONTGOMERY     LGT RAIN  80  75  84 S8        30.07S                  
SHELBY CO ARPT MOSUNNY   88  70  55 SW7       30.05S HX  93           
MAXWELL AFB    PTSUNNY   81  73  76 SW7       30.05S                  
GREENVILLE     FAIR      75  75 100 MISG      30.08F                  
SELMA          LGT RAIN  77  75  94 S5G13     30.07R                  
PRATTVILLE     FAIR      78  72  79 SW3       30.07R                  
BESSEMER       FAIR      90  73  57 SW8G16    30.07R HX  98           
TALLADEGA      FAIR     N/A N/A N/A SW8       30.05S                  
PELL CITY      SUNNY     91  72  52 W5        30.04F HX  98           
SYLACAUGA      CLOUDY    89  74  62 SW8       30.06R HX  98           
$$
 

SKY/WX - Weather  TMP - Temperature  DP - Dew Point  RH - Humidity
WIND - Wind Direction/Speed PRES - Barometric Pressure VSB - Visibility
WCI - Wind Chill Index E13G22 Wind - East Wind 13 mph/Gusts of 22 mph

Trending Headlines

Roebuck Plaza Radar Loop



Roebuck Plaza Quick Facts


National Two Day Weather Forecast


E-mail the Roebuck Plaza Weather Forecast

Voice your opinion or tell us about page issues...